Temp
12 12 12 12 12 13 14 14 15 15 16 16 15 16 16 16 15 15 15 14 14 14 14 13 13 12 12 12 11 11 11 11 11 11 10 10 10 10 9 9 9 9 9 9 9 9 8 8 8
12 12 12 12 12 12 15 15 15 15 15 16 15 15 15 16 15 15 15 14 14 14 14 13 13 12 12 12 11 11 11 11 11 11 10 10 10 9 9 9 9 9 8 8 8 8 8 8 8
11 12 11 12 12 14 15 14 15 15 15 15 15 15 14 15 15 15 15 14 13 13 13 13 13 12 12 12 12 11 11 11 11 10 10 10 10 9 9 9 9 8 8 8 8 8 8 7 7
11 11 11 12 13 15 15 15 14 15 15 15 15 15 14 15 15 15 14 14 14 13 13 13 12 12 12 12 12 12 11 11 11 10 10 10 9 9 9 9 9 9 8 8 8 8 7 7 7
11 11 11 12 13 15 14 14 15 15 15 15 15 14 14 14 14 14 14 13 13 13 13 13 12 12 11 11 11 11 11 11 11 10 10 10 9 9 9 9 9 8 8 8 8 8 7 7 7
11 10 11 12 14 15 15 14 14 14 15 15 14 14 14 14 14 14 13 13 13 13 13 13 12 12 12 11 11 11 11 11 11 10 10 10 10 9 9 9 8 8 8 8 8 8 7 7 6
11 10 11 12 14 14 15 14 13 14 14 15 14 14 14 14 13 13 13 13 13 13 13 12 12 12 12 11 11 11 11 11 11 11 11 10 10 9 9 9 8 8 8 8 8 7 7 7 7
10 9 11 11 13 15 14 14 14 14 14 14 14 13 13 13 13 12 13 13 12 12 12 12 12 12 12 12 12 11 11 11 11 11 11 10 10 9 9 9 8 8 8 8 8 8 7 7 7
10 8 10 12 13 14 13 11 14 13 13 13 14 14 13 13 13 13 13 13 12 12 12 12 12 12 12 12 12 11 11 11 11 11 11 11 10 9 9 9 8 8 8 8 8 8 8 7 7
10 9 10 13 13 13 13 11 12 13 13 13 13 13 13 13 13 13 13 13 13 13 13 13 12 12 12 12 12 11 11 11 11 11 11 11 10 10 9 9 8 8 7 7 8 8 8 7 6
10 10 11 12 12 12 12 12 12 12 13 12 13 13 13 13 14 13 13 13 13 13 13 12 13 12 12 12 12 11 11 11 11 11 11 11 10 10 9 8 8 7 7 7 7 7 7 7 6
8 10 10 11 11 11 12 12 12 12 13 13 13 13 13 13 13 13 12 13 13 13 12 12 12 12 12 12 12 11 10 10 11 11 11 11 10 9 9 8 8 7 7 7 7 7 7 6 5
9 10 9 9 10 11 11 11 12 13 13 12 13 13 13 12 13 13 13 12 12 12 12 12 12 12 12 12 11 11 11 10 10 11 11 11 10 9 9 8 7 7 7 7 6 7 7 6 5
9 8 8 7 8 9 9 11 12 12 12 13 13 13 13 13 12 12 12 12 12 12 12 12 12 12 12 12 12 11 10 10 10 10 10 10 10 9 8 7 7 7 6 6 6 6 6 6 5
7 7 7 8 8 8 9 10 11 11 12 12 12 12 12 12 12 12 12 12 12 12 12 12 12 12 12 12 12 12 10 10 10 10 10 10 10 9 8 7 7 6 6 6 6 5 5 5 4
6 6 6 8 8 8 8 10 11 11 11 11 12 12 12 12 12 12 12 12 12 12 12 12 12 12 12 12 12 11 11 10 10 10 10 10 10 9 8 7 7 6 6 5 5 5 4 4 4
5 6 7 8 8 8 8 10 10 10 11 11 11 12 12 12 12 13 12 12 12 12 12 12 12 12 12 12 11 11 11 10 10 9 10 9 9 9 8 7 7 6 5 5 5 4 4 4 3
4 6 7 7 7 7 8 10 10 10 10 11 11 11 11 12 12 12 12 12 12 12 12 12 12 12 11 11 11 11 11 11 10 10 9 9 8 8 8 6 6 6 5 5 4 4 3 3 3
5 5 7 7 7 7 8 9 9 10 10 11 11 11 12 12 12 12 12 12 12 12 12 12 12 12 11 11 11 11 11 10 10 9 8 8 8 7 6 6 5 5 6 5 3 3 3 2 2
3 5 5 6 7 7 8 9 9 9 10 10 11 11 12 12 12 12 12 12 12 12 12 12 12 11 11 11 11 11 10 10 9 8 7 8 8 7 6 5 5 5 4 4 3 3 3 3 2
3 3 4 4 6 8 7 8 8 9 10 10 10 11 11 12 12 12 12 12 12 12 12 11 11 10 11 11 11 10 10 9 9 8 8 7 7 7 6 5 5 4 4 3 3 3 3 2 2
2 3 4 4 5 5 7 7 8 9 10 10 11 11 11 12 12 12 12 12 12 12 12 11 11 11 11 11 11 11 10 9 8 7 7 8 7 6 5 5 4 4 4 3 3 3 3 2 2
2 3 4 4 5 5 6 7 9 8 9 10 11 11 12 12 12 12 12 12 12 12 12 11 11 11 11 11 11 11 10 9 9 7 8 7 6 6 5 5 4 4 4 4 4 3 3 2 2
2 3 4 5 5 4 6 7 8 9 10 10 12 12 12 12 12 12 12 12 13 12 12 11 11 11 11 11 11 11 10 9 8 8 7 7 6 5 5 4 4 4 4 4 3 3 3 3 2
2 2 2 2 3 4 7 7 7 10 10 11 11 11 12 12 12 12 12 13 12 12 11 11 11 11 11 11 11 10 9 8 8 7 6 6 5 4 4 4 4 4 4 3 3 3 3 3 2
2 2 3 1 1 4 6 7 8 10 10 12 11 12 11 11 12 12 12 12 12 11 11 11 11 11 11 11 10 9 8 8 7 6 6 5 4 4 4 4 4 3 3 3 3 3 2 2 2
2 2 3 3 5 4 7 8 9 10 12 12 12 12 11 12 12 12 12 12 12 11 11 11 11 11 10 9 8 8 7 7 6 6 5 4 4 4 4 4 3 3 3 3 3 3 2 2 2
1 2 3 3 2 2 5 7 9 12 12 12 12 13 12 12 11 12 12 11 11 11 11 11 11 10 9 8 8 7 7 7 6 5 5 4 4 4 4 4 3 4 3 3 3 2 2 1 2
1 2 2 3 4 3 3 6 11 11 11 13 13 13 13 12 12 12 12 11 11 11 11 10 10 9 8 7 7 7 7 6 6 5 5 5 4 4 4 4 4 4 4 3 3 2 2 2 2
0 1 0 1 3 5 6 6 11 11 11 12 13 13 12 12 12 12 12 12 11 11 10 10 9 8 8 7 7 7 7 6 5 4 5 5 4 4 4 4 3 4 4 3 3 2 2 2 2
Height
3166 3167 3168 3169 3174 3170 3167 3171 3168 3168 3169 3168 3168 3166 3167 3168 3170 3173 3171 3170 3171 3173 3173 3173 3173 3172 3171 3171 3170 3169 3168 3167 3165 3163 3162 3161 3159 3157 3154 3152 3150 3148 3145 3144 3142 3141 3140 3140 3140
3165 3166 3166 3165 3167 3165 3165 3170 3169 3169 3168 3166 3166 3167 3166 3167 3168 3170 3170 3170 3171 3171 3171 3172 3171 3170 3169 3168 3167 3167 3166 3165 3164 3162 3161 3160 3158 3156 3154 3152 3149 3147 3145 3142 3140 3138 3137 3137 3137
3162 3164 3166 3164 3163 3160 3164 3168 3168 3168 3167 3166 3166 3167 3165 3167 3168 3168 3169 3169 3169 3170 3170 3170 3169 3167 3167 3166 3165 3164 3163 3163 3162 3160 3159 3158 3156 3155 3153 3151 3148 3146 3145 3142 3138 3136 3134 3133 3133
3159 3162 3163 3159 3157 3160 3161 3165 3165 3166 3167 3165 3165 3167 3165 3166 3166 3167 3168 3168 3169 3169 3168 3167 3166 3166 3164 3164 3163 3161 3160 3159 3159 3158 3157 3156 3155 3153 3152 3149 3146 3145 3143 3140 3136 3134 3132 3131 3130
3156 3159 3158 3156 3156 3157 3161 3163 3163 3165 3165 3165 3163 3166 3165 3163 3165 3166 3167 3167 3168 3167 3165 3164 3163 3162 3162 3161 3159 3158 3157 3156 3156 3155 3154 3153 3152 3151 3149 3147 3145 3143 3141 3138 3135 3132 3129 3127 3127
3155 3155 3154 3152 3153 3156 3157 3163 3163 3161 3164 3163 3162 3161 3163 3161 3163 3164 3164 3164 3164 3164 3162 3161 3161 3159 3158 3157 3156 3155 3154 3153 3153 3152 3151 3151 3150 3149 3147 3145 3143 3141 3138 3136 3133 3130 3127 3124 3123
3150 3152 3149 3150 3149 3153 3154 3160 3161 3165 3165 3163 3158 3160 3163 3162 3162 3162 3160 3159 3159 3160 3160 3158 3157 3157 3155 3153 3153 3152 3151 3151 3150 3149 3148 3147 3147 3145 3143 3142 3140 3138 3135 3132 3130 3127 3125 3123 3121
3147 3147 3146 3146 3147 3147 3150 3156 3157 3160 3165 3163 3162 3159 3160 3160 3161 3159 3157 3156 3155 3155 3155 3155 3156 3155 3154 3151 3150 3149 3148 3148 3147 3146 3145 3145 3143 3142 3140 3139 3137 3135 3133 3130 3127 3125 3122 3120 3118
3144 3140 3139 3141 3143 3145 3145 3153 3156 3158 3158 3159 3160 3158 3157 3159 3158 3157 3155 3151 3153 3151 3151 3151 3152 3151 3150 3148 3146 3146 3145 3144 3143 3142 3142 3141 3140 3138 3137 3136 3134 3132 3131 3128 3126 3123 3119 3117 3114
3134 3131 3131 3139 3140 3141 3144 3148 3155 3153 3156 3153 3153 3154 3154 3154 3153 3154 3154 3154 3149 3149 3148 3147 3147 3146 3145 3144 3142 3141 3140 3140 3139 3139 3139 3138 3137 3135 3133 3132 3131 3128 3127 3126 3124 3121 3116 3113 3111
3126 3118 3129 3132 3134 3136 3138 3144 3145 3145 3144 3150 3149 3148 3149 3151 3149 3149 3149 3149 3148 3145 3141 3142 3142 3141 3140 3139 3138 3136 3136 3136 3135 3134 3134 3134 3133 3130 3129 3128 3127 3124 3123 3121 3120 3117 3113 3110 3107
3117 3117 3122 3126 3130 3132 3131 3137 3136 3138 3138 3142 3143 3144 3144 3144 3144 3144 3144 3143 3142 3140 3137 3137 3136 3135 3135 3134 3133 3132 3131 3131 3131 3130 3130 3129 3127 3126 3124 3124 3122 3121 3119 3116 3115 3112 3109 3106 3103
3110 3113 3117 3120 3122 3124 3127 3126 3127 3125 3131 3134 3135 3136 3136 3136 3136 3137 3137 3136 3135 3133 3132 3131 3130 3129 3129 3128 3127 3127 3127 3126 3127 3126 3125 3124 3122 3121 3119 3118 3117 3116 3114 3111 3109 3107 3105 3103 3100
3105 3107 3109 3113 3114 3117 3118 3117 3121 3120 3126 3125 3126 3127 3128 3128 3129 3130 3129 3129 3128 3127 3127 3124 3123 3123 3122 3122 3121 3121 3121 3121 3121 3121 3120 3119 3117 3115 3114 3112 3112 3111 3108 3105 3103 3101 3099 3098 3096
3100 3101 3104 3101 3105 3108 3116 3102 3102 3115 3119 3116 3118 3120 3120 3121 3121 3120 3121 3121 3120 3119 3119 3117 3117 3116 3116 3116 3115 3114 3114 3115 3115 3115 3115 3113 3112 3111 3109 3109 3107 3104 3104 3100 3097 3094 3092 3091 3090
3093 3096 3090 3087 3100 3103 3114 3074 3099 3108 3110 3109 3112 3112 3112 3111 3111 3112 3112 3113 3113 3112 3111 3111 3111 3110 3110 3110 3109 3108 3107 3109 3109 3109 3109 3108 3107 3106 3104 3103 3101 3100 3098 3095 3091 3088 3085 3085 3084
3084 3077 3079 3077 3092 3101 3105 3063 3094 3102 3104 3103 3103 3103 3102 3101 3102 3103 3105 3105 3105 3105 3105 3105 3104 3105 3104 3103 3103 3102 3101 3101 3102 3102 3102 3102 3102 3100 3098 3097 3095 3094 3092 3089 3086 3083 3081 3079 3078
3069 3070 3065 3071 3086 3092 3094 3064 3087 3093 3095 3094 3094 3093 3093 3092 3092 3094 3095 3096 3096 3097 3098 3098 3097 3098 3098 3098 3096 3095 3094 3093 3094 3094 3094 3096 3096 3094 3094 3092 3091 3089 3086 3082 3079 3077 3074 3073 3072
3067 3069 3069 3073 3080 3086 3078 3072 3077 3083 3084 3084 3084 3085 3084 3085 3086 3086 3087 3088 3088 3089 3090 3091 3090 3091 3091 3091 3089 3088 3087 3087 3086 3086 3087 3089 3088 3088 3087 3085 3085 3082 3078 3075 3073 3069 3068 3067 3066
3060 3061 3060 3069 3075 3077 3075 3065 3068 3072 3074 3076 3075 3075 3075 3076 3077 3078 3080 3081 3081 3083 3083 3082 3082 3082 3083 3084 3082 3081 3081 3080 3079 3078 3077 3081 3081 3081 3080 3081 3079 3075 3072 3070 3067 3065 3063 3062 3061
3053 3056 3061 3067 3071 3068 3073 3058 3065 3060 3061 3065 3067 3066 3067 3068 3068 3071 3073 3073 3073 3073 3075 3074 3074 3074 3075 3076 3076 3077 3075 3074 3074 3075 3076 3076 3076 3076 3076 3075 3072 3070 3067 3064 3061 3060 3059 3058 3057
3048 3056 3061 3065 3070 3064 3074 3055 3052 3049 3048 3054 3056 3059 3059 3060 3061 3063 3065 3065 3065 3066 3067 3067 3067 3066 3067 3070 3070 3070 3070 3070 3072 3072 3072 3072 3072 3072 3072 3070 3067 3064 3061 3059 3058 3056 3055 3054 3054
3041 3053 3056 3061 3061 3064 3062 3063 3009 3040 3039 3042 3046 3049 3051 3053 3055 3056 3057 3056 3057 3058 3059 3060 3060 3061 3062 3064 3063 3063 3065 3066 3067 3068 3069 3069 3070 3068 3067 3065 3063 3060 3058 3057 3056 3054 3053 3052 3051
3043 3046 3051 3055 3058 3053 3047 3054 3017 3028 3030 3033 3036 3040 3044 3046 3048 3048 3049 3049 3048 3050 3053 3054 3056 3057 3058 3058 3058 3059 3060 3061 3064 3065 3065 3065 3065 3064 3063 3061 3059 3057 3056 3055 3054 3053 3052 3051 3050
3035 3040 3045 3050 3049 3028 3039 3042 3017 3020 3024 3027 3030 3034 3037 3040 3042 3042 3042 3043 3042 3045 3047 3050 3052 3053 3053 3053 3054 3055 3057 3059 3060 3061 3061 3061 3060 3060 3058 3056 3055 3055 3054 3053 3053 3052 3051 3050 3050
3028 3034 3033 3036 3037 3030 3037 3021 3015 3017 3021 3021 3025 3027 3030 3033 3036 3037 3038 3038 3040 3041 3043 3046 3048 3049 3049 3050 3051 3052 3053 3054 3055 3057 3057 3057 3057 3056 3054 3054 3053 3052 3052 3052 3052 3050 3049 3048 3048
3022 3023 3030 3032 3027 3031 3023 3016 3013 3013 3016 3018 3021 3022 3025 3028 3031 3033 3035 3036 3038 3040 3041 3043 3044 3045 3046 3048 3049 3050 3050 3051 3052 3052 3053 3053 3054 3053 3052 3052 3051 3051 3051 3051 3050 3048 3047 3047 3046
3018 3023 3026 3027 3030 3030 3016 3012 3007 3008 3011 3014 3017 3018 3021 3024 3028 3030 3032 3034 3036 3037 3039 3040 3042 3044 3045 3046 3047 3047 3047 3048 3050 3050 3051 3052 3051 3050 3050 3050 3050 3050 3050 3049 3048 3048 3047 3045 3045
3014 3015 3019 3021 3020 3017 3016 3006 3003 3005 3008 3009 3011 3015 3017 3022 3026 3028 3029 3032 3033 3035 3037 3039 3041 3042 3043 3044 3044 3044 3044 3046 3047 3048 3048 3049 3048 3048 3049 3049 3048 3049 3049 3048 3047 3046 3044 3041 3042
3008 3010 3013 3013 3013 3010 3010 2997 3001 3004 3006 3003 3007 3011 3016 3021 3024 3027 3028 3030 3031 3034 3036 3038 3039 3040 3040 3040 3040 3041 3042 3044 3044 3045 3045 3046 3047 3047 3048 3048 3048 3049 3048 3048 3046 3044 3040 3039 3040
Wind_Speed
14 12 11 10 8 9 14 7 10 9 9 12 9 10 6 7 1 2 6 12 13 10 10 14 17 16 14 11 10 11 9 9 9 11 12 15 17 19 20 20 21 23 21 17 14 13 15 17 18
14 13 14 13 9 14 13 4 4 8 6 12 6 13 8 9 9 8 6 5 7 8 9 14 17 14 15 13 12 12 10 8 8 9 12 14 16 18 21 23 22 21 25 24 19 16 14 14 17
15 14 14 9 13 17 5 8 3 13 13 16 11 5 5 8 11 9 5 4 6 7 8 12 15 14 13 15 17 16 13 8 9 9 10 12 13 15 17 21 23 21 24 27 25 19 16 15 14
17 16 17 17 16 17 14 1 14 15 12 16 19 4 4 7 10 8 4 8 11 11 15 13 13 16 14 11 13 18 17 11 9 8 10 11 11 13 14 18 22 21 24 28 29 25 19 14 14
18 18 20 20 19 13 7 7 11 15 17 11 6 8 14 20 13 8 10 9 15 15 16 13 17 14 13 12 12 16 18 16 13 11 12 12 12 14 14 17 20 21 22 25 28 29 23 19 15
20 21 16 25 17 13 13 2 19 1 10 4 16 21 13 16 9 9 10 14 19 16 12 15 17 16 19 18 17 15 18 18 18 16 14 15 14 15 16 16 19 21 21 22 26 29 23 22 20
23 25 26 23 18 17 18 6 8 9 7 4 2 16 8 1 6 12 15 11 13 10 11 16 17 18 24 23 23 22 20 18 20 21 18 17 17 16 17 17 18 20 21 22 27 28 23 20 21
25 27 30 27 22 19 6 16 6 6 3 5 2 3 4 6 7 18 13 8 14 12 14 16 20 21 22 26 26 24 22 19 21 23 22 20 19 19 18 18 19 19 21 23 26 29 27 22 21
27 29 35 30 22 20 9 22 18 14 8 18 12 7 14 13 15 8 9 12 12 13 18 20 22 24 20 23 28 27 24 20 20 23 24 25 23 22 20 19 19 20 20 23 25 29 28 24 21
33 39 39 28 28 28 22 21 32 32 26 23 23 17 14 23 20 22 21 21 29 31 31 30 24 28 21 25 31 29 27 20 21 22 23 25 26 25 24 21 21 21 21 22 25 28 29 24 22
38 48 41 38 37 35 37 35 30 36 41 32 29 18 22 22 26 21 28 30 35 38 37 31 34 31 29 31 29 27 28 22 20 21 23 25 27 28 27 23 23 22 22 23 26 27 28 24 21
42 44 42 42 39 38 40 34 38 32 35 33 29 33 29 27 25 26 27 32 36 36 34 28 31 34 35 34 29 26 28 25 23 24 25 27 28 29 29 25 25 23 24 25 28 27 27 23 20
48 47 40 37 34 35 35 39 39 40 34 33 31 31 32 33 34 36 37 35 33 33 35 34 34 35 36 36 30 26 29 30 28 27 28 28 30 30 28 28 25 24 24 27 29 27 26 21 20
48 45 43 40 39 35 35 40 41 42 37 39 39 36 38 40 39 39 34 39 40 37 35 37 35 35 36 32 33 29 28 31 29 29 30 30 32 32 28 28 26 26 25 28 30 30 27 22 19
44 46 44 49 42 37 29 45 48 38 36 36 36 39 45 46 43 41 38 39 33 30 36 38 38 38 40 39 37 34 28 30 31 32 34 33 35 35 30 27 28 26 27 29 31 31 28 23 20
35 43 51 56 48 41 27 64 47 39 37 41 43 46 43 44 44 39 37 33 30 36 32 32 34 39 40 37 38 34 28 30 32 34 36 38 37 34 29 29 27 28 28 29 30 32 27 25 22
36 47 53 60 48 40 37 68 48 47 46 48 47 47 44 48 36 29 32 33 34 35 33 29 34 37 38 37 37 31 27 28 33 35 36 38 33 31 32 31 28 29 30 29 31 28 27 26 25
36 45 51 51 40 32 43 68 53 50 47 51 52 49 43 39 37 34 34 37 35 37 36 33 33 33 35 36 35 29 28 30 33 35 37 35 30 32 30 29 27 29 30 30 27 28 28 26 24
23 30 37 32 27 32 48 54 51 44 45 45 45 41 39 39 39 36 38 33 34 37 34 37 34 36 29 28 29 28 29 29 32 35 36 28 31 31 27 24 26 28 30 29 28 28 25 22 21
41 43 35 24 15 21 29 41 42 42 42 40 39 39 42 38 35 33 33 29 29 34 34 38 40 36 37 31 28 28 28 29 31 33 36 30 25 25 22 23 25 26 27 25 23 21 19 16 16
37 42 41 29 27 27 24 43 33 46 44 44 42 40 38 40 42 37 36 37 36 32 32 29 28 29 32 30 26 29 31 33 33 32 31 22 17 16 19 22 23 24 23 20 19 17 15 16 15
36 34 23 30 33 31 29 34 47 50 51 49 48 44 43 46 39 33 33 29 30 32 32 28 26 21 20 24 26 30 30 28 26 26 19 16 13 16 19 19 21 23 19 16 15 14 13 13 15
36 25 26 25 25 30 36 24 65 33 43 46 45 46 45 38 32 27 29 30 34 33 28 23 17 16 17 22 23 22 22 22 21 15 14 13 15 16 17 18 20 18 14 13 11 9 10 10 11
14 21 26 27 26 17 34 27 32 38 44 40 35 31 29 25 24 28 29 23 27 28 26 25 18 18 20 19 19 18 18 17 11 11 14 15 14 15 15 18 14 13 10 8 6 6 6 5 5
20 14 6 7 10 17 19 25 48 10 6 18 22 23 20 21 23 19 19 20 18 22 22 18 16 17 18 16 16 17 13 9 11 12 13 13 14 14 15 13 11 9 6 7 7 7 7 6 6
24 19 12 7 4 5 34 16 20 28 31 29 27 21 21 22 21 16 17 14 13 13 16 17 16 15 12 14 12 9 9 11 13 12 12 13 12 13 12 9 8 6 7 8 9 10 9 8 8
18 29 25 21 29 4 15 24 35 44 36 30 25 26 22 25 18 13 8 12 9 10 13 14 12 11 11 9 8 10 11 13 11 12 12 11 11 10 9 7 6 7 5 4 7 8 7 7 9
19 14 15 19 7 6 8 15 22 18 16 15 17 20 22 21 19 15 12 13 12 13 13 12 10 9 8 7 9 12 13 11 11 12 11 11 8 9 8 8 6 4 4 6 7 6 6 8 8
18 16 21 15 11 8 3 8 26 24 19 19 16 22 20 20 15 11 10 15 14 13 13 9 7 9 8 9 10 10 11 9 11 11 9 6 7 8 7 6 4 3 6 6 6 6 3 6 10
20 19 13 8 12 18 17 27 27 25 21 18 19 21 21 14 10 10 11 13 14 15 11 7 8 8 8 9 9 10 8 8 8 6 4 6 10 9 7 5 4 3 2 2 5 6 8 9 9
Wind_Direction
210 203 196 197 198 231 240 106 49 75 105 80 42 18 334 337 338 325 86 37 36 10 347 342 346 329 317 313 310 314 326 346 1 12 20 18 17 14 8 1 357 359 353 338 315 288 272 266 262
211 204 200 202 218 221 236 220 95 26 354 258 312 333 319 288 300 299 303 3 31 3 345 335 350 336 317 309 314 312 311 334 357 8 11 10 9 9 8 3 354 352 355 348 335 314 293 274 264
205 204 206 208 228 220 204 128 315 329 333 308 279 296 301 305 293 288 249 325 13 344 333 331 351 354 341 317 318 309 299 306 336 350 357 1 360 358 359 0 355 347 348 351 344 329 312 298 277
205 205 207 221 223 211 225 315 336 316 310 337 254 211 262 278 267 274 258 299 303 294 324 337 341 343 337 330 330 325 298 286 307 320 332 342 342 340 345 353 355 347 344 346 345 335 321 308 296
204 209 214 229 227 215 236 291 327 304 289 299 241 231 271 280 245 262 300 304 290 305 314 340 332 323 310 308 324 331 310 283 288 297 316 322 326 328 333 343 350 349 344 345 343 336 320 315 304
210 211 214 230 228 204 218 277 326 329 297 294 222 242 257 228 242 281 313 323 313 320 329 335 317 319 308 300 301 322 319 290 281 289 300 310 312 321 326 332 339 342 342 342 341 336 322 314 309
216 221 224 226 228 229 216 180 356 7 332 40 354 199 196 267 251 309 324 333 326 331 325 324 308 312 310 297 299 308 320 303 288 285 291 297 299 308 316 322 326 333 341 339 341 337 323 307 305
221 227 237 235 235 235 246 216 271 328 330 140 315 57 123 12 288 309 300 323 312 306 309 319 301 292 302 302 297 298 305 302 298 292 288 288 289 296 305 311 316 325 332 334 337 335 326 308 299
244 230 235 235 237 241 217 266 229 295 268 311 295 282 303 295 278 306 291 290 289 294 299 293 296 299 290 295 298 287 288 293 306 297 292 286 285 287 292 299 304 314 322 326 329 331 328 312 302
236 243 233 230 240 248 244 265 250 256 265 259 308 272 289 280 284 292 293 280 296 293 293 293 283 291 286 296 298 294 279 289 302 294 290 289 279 280 283 289 295 304 311 317 321 325 326 315 305
235 243 249 239 246 244 250 260 243 249 253 252 269 279 275 280 260 288 292 282 282 287 291 291 286 286 290 288 301 288 277 286 295 292 284 285 277 275 278 281 287 295 303 312 316 320 323 314 305
238 241 247 253 254 255 255 253 234 232 242 244 250 266 275 273 272 280 295 292 283 283 288 288 285 277 281 291 294 287 273 278 290 290 279 279 276 273 272 272 278 288 300 309 312 316 318 312 304
242 247 245 249 252 254 254 244 246 240 241 248 250 262 268 278 269 274 277 280 283 287 286 290 283 273 280 288 292 295 276 275 285 282 276 279 278 273 269 266 274 283 297 303 307 311 309 305 294
243 246 247 249 250 251 257 254 246 243 247 251 249 259 265 269 276 276 278 281 284 277 282 284 279 273 276 276 290 302 278 275 286 283 280 280 278 273 269 268 275 286 296 299 305 305 305 296 284
245 249 251 249 244 246 256 258 249 249 245 257 263 265 274 271 273 275 273 284 285 279 274 278 276 273 271 277 291 301 284 278 284 281 280 282 281 279 279 275 277 286 292 298 302 301 297 290 281
237 241 247 247 245 242 241 255 244 245 254 262 267 272 272 272 279 281 277 275 282 277 272 279 275 269 269 280 295 296 287 278 279 281 277 278 282 285 281 280 287 287 293 297 296 294 292 287 281
229 234 237 247 242 243 235 254 257 256 262 265 268 275 280 278 275 275 275 278 270 273 275 277 263 263 274 286 294 292 291 277 276 278 275 277 286 287 289 292 285 287 291 292 288 289 282 281 278
219 228 237 248 245 245 244 256 256 257 259 266 271 271 273 275 277 286 282 275 273 262 274 268 271 272 280 283 290 287 289 279 276 278 279 284 284 285 288 285 278 285 289 291 291 286 280 275 273
227 236 249 257 258 249 245 254 261 262 262 269 271 265 273 277 279 278 279 270 258 263 269 267 268 269 269 276 283 285 286 284 283 283 286 282 280 279 280 275 283 287 295 294 290 286 283 276 267
234 238 239 244 232 252 264 263 265 264 264 262 268 271 268 279 272 270 272 274 273 271 271 268 270 270 267 278 274 283 285 282 280 280 277 287 282 272 271 278 287 297 294 293 286 285 280 272 262
236 241 244 255 254 239 272 265 265 257 258 259 260 262 265 269 266 271 275 280 280 279 271 272 277 267 261 270 272 276 274 270 268 273 277 277 264 268 278 290 292 291 296 291 291 287 281 270 264
249 236 260 260 261 264 266 279 266 256 258 256 257 259 263 264 273 278 268 270 270 270 274 267 267 267 261 264 273 272 269 266 270 269 266 264 276 282 285 288 291 297 294 293 291 288 283 277 263
251 245 252 244 254 259 252 263 263 265 262 259 260 258 260 264 267 271 271 272 272 267 266 260 264 259 269 272 264 259 261 262 261 257 258 267 276 284 288 291 293 288 290 291 291 286 282 269 258
246 240 244 245 254 256 245 237 280 259 260 263 266 264 267 267 269 270 272 264 268 253 255 254 262 268 269 265 263 258 251 252 245 242 265 279 286 283 289 287 283 279 279 280 292 297 279 261 217
244 241 222 222 216 234 226 229 236 236 259 264 275 278 274 282 275 287 262 276 265 241 246 243 255 262 269 260 255 251 246 228 244 266 274 281 283 281 285 285 274 272 268 269 281 292 279 252 226
244 227 204 193 200 274 234 244 247 260 267 271 276 280 276 273 278 262 268 264 237 240 232 238 252 263 246 248 247 234 231 255 264 271 279 276 275 279 274 264 258 247 258 266 291 280 272 255 233
238 235 231 270 264 287 234 248 267 265 266 266 267 266 266 265 256 262 253 242 228 225 229 235 241 235 233 229 221 232 252 263 271 278 278 273 271 268 248 245 224 239 269 283 254 283 274 254 236
243 232 212 231 216 240 254 260 238 230 238 261 273 242 250 257 229 255 258 230 226 224 239 208 218 219 212 211 236 252 255 260 263 261 255 259 254 238 232 221 222 253 286 267 252 262 257 248 227
249 226 235 247 248 219 298 252 208 239 297 272 246 222 235 216 228 250 235 218 229 219 194 208 211 215 225 239 237 250 264 258 244 238 245 238 222 227 208 210 209 257 275 284 272 308 295 260 231
252 249 253 235 239 247 245 264 214 236 280 280 230 213 210 213 229 225 205 203 192 191 197 203 207 225 242 233 245 259 245 212 215 224 236 206 205 200 187 184 219 228 266 314 329 303 291 279 235